Location: Skymont Scout Reservation
(35.4344°N, 85.8742°W)
Time: 05:15:51
(UTC-05:00)

ISS - All Passes

Search period start: 21 April 2014 00:00
Search period end: 01 May 2014 00:00
Orbit: 414 x 419 km, 51.6° (Epoch: 21 April)

Date Brightness Start Highest point End Pass type
(mag) Time Alt. Az. Time Alt. Az. Time Alt. Az.
21 Apr - 13:10:17 10° S 13:12:27 16° SE 13:14:38 10° E daylight
21 Apr - 14:45:47 10° WSW 14:48:56 39° NW 14:52:07 10° NE daylight
21 Apr - 19:42:09 10° N 19:42:52 11° NNE 19:43:35 10° NE daylight
21 Apr - 21:16:52 10° NW 21:20:11 58° NE 21:23:29 10° ESE visible
21 Apr - 22:55:30 10° WSW 22:56:31 11° SW 22:57:33 10° SW visible
22 Apr - 13:57:00 10° SW 14:00:20 75° NW 14:03:40 10° NE daylight
22 Apr - 15:36:12 10° NW 15:37:33 12° NNW 15:38:54 10° N daylight
22 Apr - 20:28:28 10° NNW 20:31:32 32° NE 20:34:35 10° ESE visible
22 Apr - 22:05:31 10° W 22:08:06 21° SW 22:10:41 10° S visible
23 Apr - 13:08:28 10° SSW 13:11:43 54° SE 13:15:00 10° ENE daylight
23 Apr - 14:46:23 10° WNW 14:48:40 17° NNW 14:50:58 10° NNE daylight
23 Apr - 19:40:09 10° NNW 19:42:45 20° NNE 19:45:20 10° E daylight
23 Apr - 21:16:25 10° WNW 21:19:34 39° SW 21:22:43 10° SSE visible
24 Apr - 12:20:15 10° S 12:23:07 27° SE 12:26:00 10° ENE daylight
24 Apr - 13:56:57 10° W 13:59:48 26° NW 14:02:40 10° NNE daylight
24 Apr - 18:51:59 10° N 18:53:49 14° NNE 18:55:39 10° ENE daylight
24 Apr - 20:27:34 10° NW 20:30:55 81° SW 20:34:15 10° SE visible
25 Apr - 11:32:36 10° SSE 11:34:31 15° SE 11:36:27 10° E daylight
25 Apr - 13:07:45 10° WSW 13:10:56 44° NW 13:14:09 10° NE daylight
25 Apr - 19:38:51 10° NW 19:42:07 51° NE 19:45:23 10° ESE daylight
25 Apr - 21:17:00 10° W 21:18:29 12° SW 21:19:57 10° SSW visible
26 Apr - 12:18:46 10° SW 12:22:05 85° NW 12:25:26 10° NE daylight
26 Apr - 13:57:42 10° NW 13:59:15 13° NNW 14:00:48 10° N daylight
26 Apr - 18:50:13 10° NNW 18:53:12 29° NE 18:56:10 10° E daylight
26 Apr - 20:27:05 10° WNW 20:29:48 23° SW 20:32:31 10° S visible
27 Apr - 11:30:03 10° SSW 11:33:15 47° SE 11:36:28 10° ENE daylight
27 Apr - 13:07:43 10° WNW 13:10:07 18° NNW 13:12:32 10° NNE daylight
27 Apr - 18:01:41 10° NNW 18:04:08 19° NNE 18:06:35 10° ENE daylight
27 Apr - 19:37:48 10° WNW 19:41:00 45° SW 19:44:12 10° SSE daylight
28 Apr - 10:41:40 10° S 10:44:24 24° SE 10:47:09 10° ENE daylight
28 Apr - 12:18:05 10° W 12:21:01 28° NW 12:23:57 10° NNE daylight
28 Apr - 17:13:20 10° N 17:14:57 13° NNE 17:16:33 10° NE daylight
28 Apr - 18:48:44 10° NW 18:52:04 87° NE 18:55:24 10° SE daylight
29 Apr - 09:54:01 10° SSE 09:55:33 13° SE 09:57:06 10° E daylight
29 Apr - 11:28:40 10° WSW 11:31:54 50° NW 11:35:10 10° NE daylight
29 Apr - 17:59:48 10° NW 18:03:01 45° NE 18:06:13 10° ESE daylight
29 Apr - 19:37:32 10° W 19:39:24 14° SW 19:41:16 10° SSW daylight
30 Apr - 10:39:30 10° SW 10:42:49 83° SE 10:46:09 10° NE daylight
30 Apr - 12:18:07 10° WNW 12:19:53 14° NNW 12:21:40 10° N daylight
30 Apr - 17:10:57 10° NNW 17:13:49 26° NE 17:16:41 10° E daylight
30 Apr - 18:47:36 10° WNW 18:50:28 27° SW 18:53:19 10° S daylight
